Overview Statistics Trail Chart Weather Telemetry Raw packets
 

This is the latest recevied weather packets stored in our database for station/object HI3LT-13. If no packets are shown the sender has not sent any weather packets the latest 10 day(s).

<< 1 2 3 4 5 >>
Time Temp. Humidity Pressure Rain* Wind** Luminosity Snow
1788608030 24.44° C 96% 1014 hPa 0 mm - - -
1788607429 22.78° C 95% 1014 hPa 0 mm - - -
1788606828 23.89° C 97% 1014 hPa 0 mm - - -
1788606227 22.78° C 94% 1014 hPa 0 mm - - -
1788605626 24.44° C 95% 1014 hPa 0 mm - - -
1788605025 24.44° C 93% 1014 hPa 0 mm - - -
1788604424 22.78° C 93% 1014 hPa 0 mm - - -
1788603823 22.78° C 91% 1014 hPa 0 mm - - -
1788603222 23.33° C 92% 1014 hPa 0 mm - - -
1788602621 23.33° C 92% 1014 hPa 0 mm - - -
1788602020 23.33° C 92% 1014 hPa 0 mm - - -
1788601419 23.33° C 92% 1014 hPa 0 mm - - -
1788600818 23.33° C 91% 1014 hPa 0 mm - - -
1788600217 23.33° C 89% 1014 hPa 0 mm - - -
1788599616 23.89° C 87% 1014 hPa 0 mm - - -
1788599015 24.44° C 86% 1014 hPa 0 mm - - -
1788598414 24.44° C 85% 1013 hPa 0 mm - - -
1788597812 24.44° C 84% 1014 hPa 0 mm - - -
1788597211 25° C 83% 1014 hPa 0 mm - - -
1788596610 25.56° C 82% 1014 hPa 0 mm - - -
1788596009 25.56° C 82% 1014 hPa 0 mm - - -
1788595408 25.56° C 82% 1014 hPa 0 mm - - -
1788594806 25.56° C 82% 1014 hPa 0 mm - - -
1788594205 25.56° C 83% 1014 hPa 0 mm - - -
1788593603 25.56° C 83% 1014 hPa 0 mm - - -

* Rain latest hour (hover to see other rain measurements)
** Current wind speed in m/s (hover to see current wind gust speed)